Location: *
(35.8942°N, 23.3025°E)
Time: 19:19:53
(UTC+00:00)

UWE-3 - Visible Passes

Search period start: 28 March 2023 00:00
Search period end: 07 April 2023 00:00
Orbit: 580 x 670 km, 97.7° (Epoch: 27 March)

Date Brightness Start Highest point End Pass type
(mag) Time Alt. Az. Time Alt. Az. Time Alt. Az.
28 Mar ? 01:58:49 10° N 01:59:56 16° NNW 01:59:56 16° NNW visible
29 Mar ? 00:41:36 10° NE 00:41:44 11° NE 00:41:44 11° NE visible
29 Mar ? 02:18:04 10° NNW 02:19:01 14° NNW 02:19:01 14° NNW visible
30 Mar ? 00:59:58 10° NNE 01:00:48 15° NNE 01:00:48 15° NNE visible
30 Mar ? 02:37:47 10° NW 02:38:04 11° NW 02:38:04 11° NW visible
31 Mar ? 01:18:35 10° NNE 01:19:51 19° NNE 01:19:51 19° NNE visible
01 Apr ? 01:37:21 10° N 01:38:53 21° N 01:38:53 21° N visible
02 Apr ? 01:56:19 10° N 01:57:56 20° NNW 01:57:56 20° NNW visible
03 Apr ? 00:39:08 10° NE 00:39:40 13° NE 00:39:40 13° NE visible
03 Apr ? 02:15:29 10° NNW 02:16:56 17° NNW 02:16:56 17° NNW visible
04 Apr ? 00:57:26 10° NNE 00:58:41 18° NNE 00:58:41 18° NNE visible
04 Apr ? 02:35:06 10° NW 02:35:57 12° NW 02:35:57 12° NW visible
05 Apr ? 01:15:58 10° NNE 01:17:41 23° NNE 01:17:41 23° NNE visible
06 Apr ? 01:34:40 10° N 01:36:40 26° N 01:36:40 26° N visible
